Time,TemperatureF,DewpointF,PressureIn,WindDirection,WindDirectionDegrees,WindSpeedMPH,WindSpeedGustMPH,Humidity,HourlyPrecipIn,Conditions,Clouds,dailyrainin,SoftwareType,DateUTC
2013-07-12 00:00:00,62.8,18.6,29.09,NE,52,0.0,0.0,18,0.00,CLR,,0.00,WeatherDisplay:10.37,2013-07-12 04:00:00,
2013-07-12 00:05:00,62.4,19.6,29.09,NE,52,0.0,0.0,19,0.00,CLR,,0.00,WeatherDisplay:10.37,2013-07-12 04:05:00,
2013-07-12 00:10:00,62.2,19.4,29.09,NE,52,0.0,0.0,19,0.00,CLR,,0.00,WeatherDisplay:10.37,2013-07-12 04:10:00,
2013-07-12 00:15:00,62.2,21.8,29.09,NE,52,0.0,0.0,21,0.00,CLR,,0.00,WeatherDisplay:10.37,2013-07-12 04:15:00,
2013-07-12 00:20:00,62.1,21.6,29.09,NE,52,0.0,0.0,21,0.00,CLR,,0.00,WeatherDisplay:10.37,2013-07-12 04:20:00,
2013-07-12 00:25:00,61.9,21.5,29.09,NE,52,0.0,0.0,21,0.00,CLR,,0.00,WeatherDisplay:10.37,2013-07-12 04:25:00,
2013-07-12 00:30:00,61.7,21.3,29.09,NE,52,0.0,0.0,21,0.00,CLR,,0.00,WeatherDisplay:10.37,2013-07-12 04:30:00,
2013-07-12 00:35:00,61.7,21.3,29.09,NE,52,0.0,0.0,21,0.00,CLR,,0.00,WeatherDisplay:10.37,2013-07-12 04:35:00,
2013-07-12 00:40:00,61.5,21.2,29.09,NE,52,0.0,0.0,21,0.00,CLR,,0.00,WeatherDisplay:10.37,2013-07-12 04:40:00,
2013-07-12 00:45:00,61.3,21.0,29.09,NE,52,0.0,0.0,21,0.00,CLR,,0.00,WeatherDisplay:10.37,2013-07-12 04:45:00,
2013-07-12 00:50:00,61.3,21.0,29.09,NE,52,0.0,0.0,21,0.00,CLR,,0.00,WeatherDisplay:10.37,2013-07-12 04:50:00,
2013-07-12 00:55:00,61.2,20.9,29.09,NE,52,0.0,0.0,21,0.00,CLR,,0.00,WeatherDisplay:10.37,2013-07-12 04:55:00,
2013-07-12 01:00:00,61.0,20.7,29.09,NE,52,0.0,0.0,21,0.00,CLR,,0.00,WeatherDisplay:10.37,2013-07-12 05:00:00,
2013-07-12 01:05:00,61.0,20.7,29.09,NE,52,0.0,0.0,21,0.00,CLR,,0.00,WeatherDisplay:10.37,2013-07-12 05:05:00,
2013-07-12 01:10:00,60.8,20.6,29.09,NE,52,0.0,0.0,21,0.00,CLR,,0.00,WeatherDisplay:10.37,2013-07-12 05:10:00,
2013-07-12 01:15:00,60.6,21.5,29.09,NE,52,0.0,0.0,22,0.00,CLR,,0.00,WeatherDisplay:10.37,2013-07-12 05:15:00,
2013-07-12 01:25:00,60.2,21.2,29.09,NE,52,0.0,0.0,22,0.00,CLR,,0.00,WeatherDisplay:10.37,2013-07-12 05:25:00,
2013-07-12 01:30:00,60.1,21.1,29.09,NE,52,0.0,0.0,22,0.00,CLR,,0.00,WeatherDisplay:10.37,2013-07-12 05:30:00,
2013-07-12 01:35:00,60.1,21.1,29.09,NE,52,0.0,0.0,22,0.00,CLR,,0.00,WeatherDisplay:10.37,2013-07-12 05:35:00,
2013-07-12 01:40:00,60.1,21.1,29.09,NE,52,0.0,0.0,22,0.00,CLR,,0.00,WeatherDisplay:10.37,2013-07-12 05:40:00,
2013-07-12 01:45:00,60.1,21.1,29.09,NE,52,0.0,0.0,22,0.00,CLR,,0.00,WeatherDisplay:10.37,2013-07-12 05:45:00,
2013-07-12 01:50:00,60.1,21.1,29.09,NE,52,0.0,0.0,22,0.00,CLR,,0.00,WeatherDisplay:10.37,2013-07-12 05:50:00,
2013-07-12 01:55:00,60.1,21.1,29.09,NE,52,0.0,0.0,22,0.00,CLR,,0.00,WeatherDisplay:10.37,2013-07-12 05:55:00,
2013-07-12 02:00:00,60.1,22.1,29.09,NE,40,0.0,0.0,23,0.00,CLR,,0.00,WeatherDisplay:10.37,2013-07-12 06:00:00,
2013-07-12 02:05:00,59.9,23.0,29.09,NNE,18,0.0,0.0,24,0.00,CLR,,0.00,WeatherDisplay:10.37,2013-07-12 06:05:00,
2013-07-12 02:10:00,59.9,23.0,29.09,North,10,0.0,0.0,24,0.00,CLR,,0.00,WeatherDisplay:10.37,2013-07-12 06:10:00,
2013-07-12 02:15:00,59.9,23.0,29.09,North,2,0.0,0.0,24,0.00,CLR,,0.00,WeatherDisplay:10.37,2013-07-12 06:15:00,
2013-07-12 02:20:00,59.9,23.0,29.09,North,357,0.0,0.0,24,0.00,CLR,,0.00,WeatherDisplay:10.37,2013-07-12 06:20:00,
2013-07-12 02:25:00,59.7,22.8,29.09,North,357,0.0,0.0,24,0.00,CLR,,0.00,WeatherDisplay:10.37,2013-07-12 06:25:00,
2013-07-12 02:30:00,59.5,22.7,29.09,North,357,0.0,0.0,24,0.00,CLR,,0.00,WeatherDisplay:10.37,2013-07-12 06:30:00,
2013-07-12 02:35:00,59.4,22.5,29.09,North,357,0.0,0.0,24,0.00,CLR,,0.00,WeatherDisplay:10.37,2013-07-12 06:35:00,
2013-07-12 02:40:00,59.4,22.5,29.09,North,357,0.0,0.0,24,0.00,CLR,,0.00,WeatherDisplay:10.37,2013-07-12 06:40:00,
2013-07-12 02:45:00,59.2,22.4,29.09,North,357,0.0,0.0,24,0.00,CLR,,0.00,WeatherDisplay:10.37,2013-07-12 06:45:00,
2013-07-12 02:50:00,59.2,22.4,29.09,North,357,0.0,0.0,24,0.00,CLR,,0.00,WeatherDisplay:10.37,2013-07-12 06:50:00,
2013-07-12 02:55:00,59.2,22.4,29.09,North,357,0.0,0.0,24,0.00,CLR,,0.00,WeatherDisplay:10.37,2013-07-12 06:55:00,
2013-07-12 03:00:00,58.9,22.1,29.09,North,357,0.0,0.0,24,0.00,CLR,,0.00,WeatherDisplay:10.37,2013-07-12 07:00:00,
2013-07-12 03:05:00,58.8,23.0,29.09,North,357,0.0,0.0,25,0.00,CLR,,0.00,WeatherDisplay:10.37,2013-07-12 07:05:00,
2013-07-12 03:15:00,58.8,23.0,29.09,North,357,0.0,0.0,25,0.00,CLR,,0.00,WeatherDisplay:10.37,2013-07-12 07:15:00,
2013-07-12 03:20:00,58.9,23.1,29.09,North,357,0.0,0.0,25,0.00,CLR,,0.00,WeatherDisplay:10.37,2013-07-12 07:20:00,
2013-07-12 03:25:00,59.0,23.2,29.09,North,356,0.0,0.0,25,0.00,CLR,,0.00,WeatherDisplay:10.37,2013-07-12 07:25:00,
2013-07-12 03:30:00,58.8,23.0,29.09,North,354,0.0,0.0,25,0.00,CLR,,0.00,WeatherDisplay:10.37,2013-07-12 07:30:00,
2013-07-12 03:35:00,58.6,22.8,29.09,North,353,0.0,0.0,25,0.00,CLR,,0.00,WeatherDisplay:10.37,2013-07-12 07:35:00,
2013-07-12 03:40:00,58.5,22.7,29.09,North,353,0.0,0.0,25,0.00,CLR,,0.00,WeatherDisplay:10.37,2013-07-12 07:40:00,
2013-07-12 03:45:00,58.3,22.6,29.09,North,353,0.0,0.0,25,0.00,CLR,,0.00,WeatherDisplay:10.37,2013-07-12 07:45:00,
2013-07-12 03:50:00,58.1,22.4,29.09,North,353,0.0,0.0,25,0.00,CLR,,0.00,WeatherDisplay:10.37,2013-07-12 07:50:00,
2013-07-12 03:55:00,57.9,22.3,29.09,North,353,0.0,0.0,25,0.00,CLR,,0.00,WeatherDisplay:10.37,2013-07-12 07:55:00,
2013-07-12 04:00:00,57.9,22.3,29.09,North,353,0.0,0.0,25,0.00,CLR,,0.00,WeatherDisplay:10.37,2013-07-12 08:00:00,
2013-07-12 04:05:00,57.9,22.3,29.09,North,353,0.0,0.0,25,0.00,CLR,,0.00,WeatherDisplay:10.37,2013-07-12 08:05:00,
2013-07-12 04:10:00,57.9,22.3,29.09,North,353,0.0,0.0,25,0.00,CLR,,0.00,WeatherDisplay:10.37,2013-07-12 08:10:00,
2013-07-12 04:15:00,57.7,22.1,29.09,North,353,0.0,0.0,25,0.00,CLR,,0.00,WeatherDisplay:10.37,2013-07-12 08:15:00,
2013-07-12 04:20:00,57.5,21.9,29.09,North,353,0.0,0.0,25,0.00,CLR,,0.00,WeatherDisplay:10.37,2013-07-12 08:20:00,
2013-07-12 04:25:00,57.4,21.8,29.09,North,353,0.0,0.0,25,0.00,CLR,,0.00,WeatherDisplay:10.37,2013-07-12 08:25:00,
2013-07-12 04:35:00,57.2,21.6,29.09,North,353,0.0,0.0,25,0.00,CLR,,0.00,WeatherDisplay:10.37,2013-07-12 08:35:00,
2013-07-12 04:40:00,57.2,21.6,29.09,North,353,0.0,0.0,25,0.00,CLR,,0.00,WeatherDisplay:10.37,2013-07-12 08:40:00,
2013-07-12 04:45:00,57.2,22.6,29.09,North,353,0.0,0.0,26,0.00,CLR,,0.00,WeatherDisplay:10.37,2013-07-12 08:45:00,
2013-07-12 04:50:00,57.2,22.6,29.09,North,353,0.0,0.0,26,0.00,CLR,,0.00,WeatherDisplay:10.37,2013-07-12 08:50:00,
2013-07-12 04:55:00,57.2,22.6,29.12,North,353,0.0,0.0,26,0.00,CLR,,0.00,WeatherDisplay:10.37,2013-07-12 08:55:00,
2013-07-12 05:00:00,57.0,22.4,29.12,North,353,0.0,0.0,26,0.00,CLR,,0.00,WeatherDisplay:10.37,2013-07-12 09:00:00,
2013-07-12 05:05:00,56.8,22.3,29.12,North,353,0.0,0.0,26,0.00,CLR,,0.00,WeatherDisplay:10.37,2013-07-12 09:05:00,
2013-07-12 05:10:00,56.8,22.3,29.12,North,353,0.0,0.0,26,0.00,CLR,,0.00,WeatherDisplay:10.37,2013-07-12 09:10:00,
2013-07-12 05:15:00,56.8,22.3,29.12,North,353,0.0,0.0,26,0.00,CLR,,0.00,WeatherDisplay:10.37,2013-07-12 09:15:00,
2013-07-12 05:20:00,56.7,22.1,29.12,North,353,0.0,0.0,26,0.00,CLR,,0.00,WeatherDisplay:10.37,2013-07-12 09:20:00,
2013-07-12 05:25:00,56.4,21.9,29.12,North,353,0.0,0.0,26,0.00,CLR,,0.00,WeatherDisplay:10.37,2013-07-12 09:25:00,
2013-07-12 05:30:00,56.4,21.9,29.12,North,353,0.0,0.0,26,0.00,CLR,,0.00,WeatherDisplay:10.37,2013-07-12 09:30:00,
2013-07-12 05:35:00,56.5,21.9,29.12,North,353,0.0,0.0,26,0.00,CLR,,0.00,WeatherDisplay:10.37,2013-07-12 09:35:00,
2013-07-12 05:40:00,56.3,21.8,29.12,North,353,0.0,0.0,26,0.00,CLR,,0.00,WeatherDisplay:10.37,2013-07-12 09:40:00,
2013-07-12 05:50:00,56.3,21.8,29.12,North,353,0.0,0.0,26,0.00,CLR,,0.00,WeatherDisplay:10.37,2013-07-12 09:50:00,
2013-07-12 05:55:00,56.1,21.7,29.12,North,353,0.0,0.0,26,0.00,CLR,,0.00,WeatherDisplay:10.37,2013-07-12 09:55:00,
2013-07-12 06:00:00,56.1,21.7,29.12,North,353,0.0,0.0,26,0.00,CLR,,0.00,WeatherDisplay:10.37,2013-07-12 10:00:00,
2013-07-12 06:05:00,55.9,21.5,29.12,North,353,0.0,0.0,26,0.00,CLR,,0.00,WeatherDisplay:10.37,2013-07-12 10:05:00,
2013-07-12 06:10:00,55.9,21.5,29.12,North,353,0.0,0.0,26,0.00,CLR,,0.00,WeatherDisplay:10.37,2013-07-12 10:10:00,
2013-07-12 06:15:00,55.8,21.3,29.12,North,353,0.0,0.0,26,0.00,CLR,,0.00,WeatherDisplay:10.37,2013-07-12 10:15:00,
2013-07-12 06:20:00,55.8,21.3,29.12,North,353,0.0,0.0,26,0.00,CLR,,0.00,WeatherDisplay:10.37,2013-07-12 10:20:00,
2013-07-12 06:25:00,55.8,21.3,29.15,North,353,0.0,0.0,26,0.00,CLR,,0.00,WeatherDisplay:10.37,2013-07-12 10:25:00,
2013-07-12 06:35:00,55.9,21.5,29.15,North,353,0.0,0.0,26,0.00,CLR,,0.00,WeatherDisplay:10.37,2013-07-12 10:35:00,
2013-07-12 06:40:00,56.6,22.9,29.15,North,353,0.0,0.0,27,0.00,CLR,,0.00,WeatherDisplay:10.37,2013-07-12 10:40:00,
2013-07-12 06:50:00,58.4,23.6,29.15,North,353,0.0,0.0,26,0.00,CLR,,0.00,WeatherDisplay:10.37,2013-07-12 10:50:00,
2013-07-12 06:55:00,59.1,23.3,29.15,North,353,0.0,0.0,25,0.00,CLR,,0.00,WeatherDisplay:10.37,2013-07-12 10:55:00,
2013-07-12 07:00:00,60.2,24.2,29.15,North,353,0.0,0.0,25,0.00,CLR,,0.00,WeatherDisplay:10.37,2013-07-12 11:00:00,
2013-07-12 07:05:00,61.9,25.6,29.15,North,353,0.0,0.0,25,0.00,CLR,,0.00,WeatherDisplay:10.37,2013-07-12 11:05:00,
2013-07-12 07:15:00,63.0,25.6,29.15,North,353,0.0,0.0,24,0.00,CLR,,0.00,WeatherDisplay:10.37,2013-07-12 11:15:00,
2013-07-12 07:20:00,64.1,26.6,29.15,North,353,0.0,0.0,24,0.00,CLR,,0.00,WeatherDisplay:10.37,2013-07-12 11:20:00,
2013-07-12 07:25:00,66.0,27.1,29.15,North,353,0.0,0.0,23,0.00,CLR,,0.00,WeatherDisplay:10.37,2013-07-12 11:25:00,
2013-07-12 07:30:00,67.9,28.7,29.15,North,353,0.0,0.0,23,0.00,CLR,,0.00,WeatherDisplay:10.37,2013-07-12 11:30:00,
2013-07-12 07:35:00,68.4,25.8,29.15,North,353,0.0,0.0,20,0.00,CLR,,0.00,WeatherDisplay:10.37,2013-07-12 11:35:00,
2013-07-12 07:40:00,69.7,29.1,29.15,North,353,0.0,0.0,22,0.00,CLR,,0.00,WeatherDisplay:10.37,2013-07-12 11:40:00,
2013-07-12 07:45:00,70.5,29.8,29.15,North,353,0.0,0.0,22,0.00,CLR,,0.00,WeatherDisplay:10.37,2013-07-12 11:45:00,
2013-07-12 07:50:00,70.4,26.1,29.15,North,353,0.0,0.0,19,0.00,CLR,,0.00,WeatherDisplay:10.37,2013-07-12 11:50:00,
2013-07-12 07:55:00,70.9,26.5,29.15,North,353,0.0,0.0,19,0.00,CLR,,0.00,WeatherDisplay:10.37,2013-07-12 11:55:00,
2013-07-12 08:05:00,72.0,27.4,29.15,North,353,0.0,0.0,19,0.00,CLR,,0.00,WeatherDisplay:10.37,2013-07-12 12:05:00,
2013-07-12 08:15:00,72.3,23.6,29.15,NNE,26,0.0,0.0,16,0.00,CLR,,0.00,WeatherDisplay:10.37,2013-07-12 12:15:00,
2013-07-12 08:20:00,72.7,23.9,29.15,East,91,0.0,0.0,16,0.00,CLR,,0.00,WeatherDisplay:10.37,2013-07-12 12:20:00,
2013-07-12 08:25:00,73.1,24.2,29.15,ESE,104,0.0,0.0,16,0.00,CLR,,0.00,WeatherDisplay:10.37,2013-07-12 12:25:00,
2013-07-12 08:30:00,73.4,24.4,29.15,ESE,103,0.0,0.0,16,0.00,CLR,,0.00,WeatherDisplay:10.37,2013-07-12 12:30:00,
2013-07-12 08:40:00,73.8,24.8,29.15,ESE,102,0.0,0.0,16,0.00,CLR,,0.00,WeatherDisplay:10.37,2013-07-12 12:40:00,
2013-07-12 08:45:00,74.6,25.4,29.15,ESE,102,0.0,0.0,16,0.00,CLR,,0.00,WeatherDisplay:10.37,2013-07-12 12:45:00,
2013-07-12 08:50:00,75.1,25.8,29.15,ESE,102,0.0,0.0,16,0.00,CLR,,0.00,WeatherDisplay:10.37,2013-07-12 12:50:00,
2013-07-12 08:55:00,74.2,20.1,29.15,ESE,102,0.0,0.0,13,0.00,CLR,,0.00,WeatherDisplay:10.37,2013-07-12 12:55:00,
2013-07-12 09:00:00,74.1,20.1,29.15,ESE,102,0.0,0.0,13,0.00,CLR,,0.00,WeatherDisplay:10.37,2013-07-12 13:00:00,
2013-07-12 09:05:00,73.8,19.8,29.15,ESE,102,0.0,0.0,13,0.00,CLR,,0.00,WeatherDisplay:10.37,2013-07-12 13:05:00,
2013-07-12 09:10:00,73.9,24.9,29.15,ESE,102,0.0,0.0,16,0.00,CLR,,0.00,WeatherDisplay:10.37,2013-07-12 13:10:00,
2013-07-12 09:15:00,74.3,25.2,29.15,ESE,102,0.0,0.0,16,0.00,CLR,,0.00,WeatherDisplay:10.37,2013-07-12 13:15:00,
2013-07-12 09:20:00,74.6,25.4,29.15,East,101,0.0,0.0,16,0.00,CLR,,0.00,WeatherDisplay:10.37,2013-07-12 13:20:00,
2013-07-12 09:25:00,75.7,24.8,29.15,East,95,0.0,0.0,15,0.00,CLR,,0.00,WeatherDisplay:10.37,2013-07-12 13:25:00,
2013-07-12 09:35:00,77.0,25.8,29.15,ENE,77,0.0,0.0,15,0.00,CLR,,0.00,WeatherDisplay:10.37,2013-07-12 13:35:00,
2013-07-12 09:40:00,76.9,22.2,29.15,ENE,68,0.0,3.0,13,0.00,CLR,,0.00,WeatherDisplay:10.37,2013-07-12 13:40:00,
2013-07-12 09:45:00,76.8,22.2,29.15,ENE,71,0.0,4.0,13,0.00,CLR,,0.00,WeatherDisplay:10.37,2013-07-12 13:45:00,
2013-07-12 09:50:00,76.8,22.2,29.15,ENE,74,3.0,4.0,13,0.00,CLR,,0.00,WeatherDisplay:10.37,2013-07-12 13:50:00,
2013-07-12 09:55:00,76.5,21.9,29.15,ENE,73,3.0,5.0,13,0.00,CLR,,0.00,WeatherDisplay:10.37,2013-07-12 13:55:00,
2013-07-12 10:00:00,76.6,22.1,29.15,ENE,72,2.0,6.0,13,0.00,CLR,,0.00,WeatherDisplay:10.37,2013-07-12 14:00:00,
2013-07-12 10:05:00,76.6,22.1,29.15,ENE,69,2.0,6.0,13,0.00,CLR,,0.00,WeatherDisplay:10.37,2013-07-12 14:05:00,
2013-07-12 10:10:00,76.7,22.1,29.15,ENE,67,3.0,5.0,13,0.00,CLR,,0.00,WeatherDisplay:10.37,2013-07-12 14:10:00,
2013-07-12 10:15:00,77.0,22.4,29.15,ENE,65,5.0,6.0,13,0.00,CLR,,0.00,WeatherDisplay:10.37,2013-07-12 14:15:00,
2013-07-12 10:20:00,76.8,22.2,29.15,ENE,73,2.0,6.0,13,0.00,CLR,,0.00,WeatherDisplay:10.37,2013-07-12 14:20:00,
2013-07-12 10:25:00,77.0,22.4,29.15,ENE,72,1.0,4.0,13,0.00,CLR,,0.00,WeatherDisplay:10.37,2013-07-12 14:25:00,
2013-07-12 10:30:00,77.2,22.5,29.15,ENE,70,1.0,6.0,13,0.00,CLR,,0.00,WeatherDisplay:10.37,2013-07-12 14:30:00,
2013-07-12 10:35:00,76.8,22.2,29.15,ENE,71,3.0,6.0,13,0.00,CLR,,0.00,WeatherDisplay:10.37,2013-07-12 14:35:00,
2013-07-12 10:40:00,77.0,22.4,29.15,ENE,71,2.0,5.0,13,0.00,CLR,,0.00,WeatherDisplay:10.37,2013-07-12 14:40:00,
2013-07-12 10:45:00,77.0,22.4,29.15,ENE,71,3.0,5.0,13,0.00,CLR,,0.00,WeatherDisplay:10.37,2013-07-12 14:45:00,
2013-07-12 10:50:00,77.0,22.4,29.15,ENE,65,3.0,6.0,13,0.00,CLR,,0.00,WeatherDisplay:10.37,2013-07-12 14:50:00,
2013-07-12 10:55:00,76.9,22.3,29.15,ENE,67,3.0,7.0,13,0.00,CLR,,0.00,WeatherDisplay:10.37,2013-07-12 14:55:00,
2013-07-12 11:00:00,77.2,22.5,29.15,ENE,69,6.0,8.0,13,0.00,CLR,,0.00,WeatherDisplay:10.37,2013-07-12 15:00:00,
2013-07-12 11:05:00,77.2,22.5,29.15,ENE,67,5.0,6.0,13,0.00,CLR,,0.00,WeatherDisplay:10.37,2013-07-12 15:05:00,
2013-07-12 11:10:00,77.0,22.4,29.15,ENE,66,3.0,6.0,13,0.00,CLR,,0.00,WeatherDisplay:10.37,2013-07-12 15:10:00,
2013-07-12 11:15:00,77.0,22.4,29.15,ENE,66,6.0,6.0,13,0.00,CLR,,0.00,WeatherDisplay:10.37,2013-07-12 15:15:00,
2013-07-12 11:20:00,77.2,22.5,29.15,ENE,64,5.0,8.0,13,0.00,CLR,,0.00,WeatherDisplay:10.37,2013-07-12 15:20:00,
2013-07-12 11:30:00,77.4,22.6,29.15,ENE,69,5.0,9.0,13,0.00,CLR,,0.00,WeatherDisplay:10.37,2013-07-12 15:30:00,
2013-07-12 11:35:00,77.6,22.8,29.15,ENE,73,5.0,8.0,13,0.00,CLR,,0.00,WeatherDisplay:10.37,2013-07-12 15:35:00,
2013-07-12 11:40:00,77.9,23.1,29.15,ENE,72,3.0,6.0,13,0.00,CLR,,0.00,WeatherDisplay:10.37,2013-07-12 15:40:00,
2013-07-12 11:45:00,78.2,23.3,29.15,ENE,71,6.0,8.0,13,0.00,CLR,,0.00,WeatherDisplay:10.37,2013-07-12 15:45:00,
2013-07-12 11:50:00,78.0,23.1,29.15,ENE,69,3.0,6.0,13,0.00,CLR,,0.00,WeatherDisplay:10.37,2013-07-12 15:50:00,
2013-07-12 11:55:00,77.9,23.1,29.15,ENE,66,5.0,8.0,13,0.00,CLR,,0.00,WeatherDisplay:10.37,2013-07-12 15:55:00,
2013-07-12 12:00:00,77.5,22.7,29.15,ENE,66,7.0,9.0,13,0.00,CLR,,0.00,WeatherDisplay:10.37,2013-07-12 16:00:00,
2013-07-12 12:05:00,76.2,21.7,29.15,ENE,62,3.0,6.0,13,0.00,CLR,,0.00,WeatherDisplay:10.37,2013-07-12 16:05:00,
2013-07-12 12:10:00,75.8,21.4,29.15,ENE,61,6.0,9.0,13,0.00,CLR,,0.00,WeatherDisplay:10.37,2013-07-12 16:10:00,
2013-07-12 12:15:00,76.5,22.0,29.15,ENE,59,7.0,9.0,13,0.00,CLR,,0.00,WeatherDisplay:10.37,2013-07-12 16:15:00,
2013-07-12 12:20:00,76.5,22.0,29.15,ENE,57,3.0,10.0,13,0.00,CLR,,0.00,WeatherDisplay:10.37,2013-07-12 16:20:00,
2013-07-12 12:25:00,77.5,22.7,29.15,ENE,58,5.0,8.0,13,0.00,CLR,,0.00,WeatherDisplay:10.37,2013-07-12 16:25:00,
2013-07-12 12:30:00,78.8,21.9,29.15,ENE,62,6.0,12.0,12,0.00,CLR,,0.00,WeatherDisplay:10.37,2013-07-12 16:30:00,
2013-07-12 12:35:00,78.7,21.8,29.15,ENE,63,6.0,12.0,12,0.00,CLR,,0.00,WeatherDisplay:10.37,2013-07-12 16:35:00,
2013-07-12 12:40:00,78.0,23.2,29.15,ENE,63,6.0,11.0,13,0.00,CLR,,0.00,WeatherDisplay:10.37,2013-07-12 16:40:00,
2013-07-12 12:45:00,77.5,22.7,29.15,ENE,57,6.0,8.0,13,0.00,CLR,,0.00,WeatherDisplay:10.37,2013-07-12 16:45:00,
2013-07-12 12:55:00,78.8,21.9,29.15,ENE,64,6.0,8.0,12,0.00,CLR,,0.00,WeatherDisplay:10.37,2013-07-12 16:55:00,
2013-07-12 13:00:00,79.0,22.0,29.15,ENE,64,5.0,9.0,12,0.00,CLR,,0.00,WeatherDisplay:10.37,2013-07-12 17:00:00,
2013-07-12 13:05:00,78.7,21.8,29.15,ENE,67,7.0,11.0,12,0.00,CLR,,0.00,WeatherDisplay:10.37,2013-07-12 17:05:00,
2013-07-12 13:15:00,78.1,23.2,29.15,ENE,62,6.0,8.0,13,0.00,CLR,,0.00,WeatherDisplay:10.37,2013-07-12 17:15:00,
2013-07-12 13:20:00,77.5,22.8,29.15,ENE,66,6.0,9.0,13,0.00,CLR,,0.00,WeatherDisplay:10.37,2013-07-12 17:20:00,
2013-07-12 13:35:00,78.4,26.9,29.15,ENE,67,7.0,8.0,15,0.00,CLR,,0.00,WeatherDisplay:10.37,2013-07-12 17:35:00,
2013-07-12 13:45:00,78.4,26.9,29.15,ENE,73,1.0,8.0,15,0.00,CLR,,0.00,WeatherDisplay:10.37,2013-07-12 17:45:00,
2013-07-12 14:00:00,78.6,27.0,29.15,ENE,70,5.0,6.0,15,0.00,CLR,,0.00,WeatherDisplay:10.37,2013-07-12 18:00:00,
2013-07-12 14:05:00,78.8,23.8,29.15,East,81,5.0,8.0,13,0.00,CLR,,0.00,WeatherDisplay:10.37,2013-07-12 18:05:00,
2013-07-12 14:10:00,78.8,25.5,29.15,ENE,74,7.0,8.0,14,0.00,CLR,,0.00,WeatherDisplay:10.37,2013-07-12 18:10:00,
2013-07-12 14:15:00,78.6,27.1,29.15,ENE,60,3.0,7.0,15,0.00,CLR,,0.00,WeatherDisplay:10.37,2013-07-12 18:15:00,
2013-07-12 14:25:00,78.6,27.1,29.15,ENE,67,6.0,11.0,15,0.00,CLR,,0.00,WeatherDisplay:10.37,2013-07-12 18:25:00,
2013-07-12 14:35:00,79.0,27.4,29.15,ENE,66,6.0,9.0,15,0.00,CLR,,0.00,WeatherDisplay:10.37,2013-07-12 18:35:00,
2013-07-12 14:40:00,78.8,27.2,29.15,ENE,63,3.0,6.0,15,0.00,CLR,,0.00,WeatherDisplay:10.37,2013-07-12 18:40:00,
2013-07-12 14:45:00,79.0,27.4,29.15,ENE,57,1.0,6.0,15,0.00,CLR,,0.00,WeatherDisplay:10.37,2013-07-12 18:45:00,
2013-07-12 14:50:00,79.3,27.6,29.15,ENE,62,6.0,8.0,15,0.00,CLR,,0.00,WeatherDisplay:10.37,2013-07-12 18:50:00,
2013-07-12 14:55:00,79.5,27.8,29.15,ENE,64,6.0,8.0,15,0.00,CLR,,0.00,WeatherDisplay:10.37,2013-07-12 18:55:00,
2013-07-12 15:00:00,79.7,28.0,29.15,NE,56,3.0,6.0,15,0.00,CLR,,0.00,WeatherDisplay:10.37,2013-07-12 19:00:00,
2013-07-12 15:10:00,79.1,27.5,29.15,ENE,64,0.0,4.0,15,0.00,CLR,,0.00,WeatherDisplay:10.37,2013-07-12 19:10:00,
2013-07-12 15:15:00,78.8,27.2,29.15,ENE,63,1.0,5.0,15,0.00,CLR,,0.00,WeatherDisplay:10.37,2013-07-12 19:15:00,
2013-07-12 15:20:00,79.3,27.6,29.15,ENE,66,6.0,8.0,15,0.00,CLR,,0.00,WeatherDisplay:10.37,2013-07-12 19:20:00,
2013-07-12 15:30:00,79.5,27.8,29.15,ENE,64,7.0,8.0,15,0.00,CLR,,0.00,WeatherDisplay:10.37,2013-07-12 19:30:00,
2013-07-12 15:40:00,79.0,27.4,29.15,ENE,70,2.0,6.0,15,0.00,CLR,,0.00,WeatherDisplay:10.37,2013-07-12 19:40:00,
2013-07-12 15:45:00,79.2,27.5,29.15,ENE,72,1.0,6.0,15,0.00,CLR,,0.00,WeatherDisplay:10.37,2013-07-12 19:45:00,
2013-07-12 15:55:00,79.9,28.1,29.12,ENE,61,5.0,8.0,15,0.00,CLR,,0.00,WeatherDisplay:10.37,2013-07-12 19:55:00,
2013-07-12 16:00:00,79.9,28.1,29.12,ENE,62,0.0,9.0,15,0.00,CLR,,0.00,WeatherDisplay:10.37,2013-07-12 20:00:00,
2013-07-12 16:05:00,79.9,28.1,29.12,ENE,67,3.0,6.0,15,0.00,CLR,,0.00,WeatherDisplay:10.37,2013-07-12 20:05:00,
2013-07-12 16:10:00,79.9,28.1,29.15,ENE,67,5.0,8.0,15,0.00,CLR,,0.00,WeatherDisplay:10.37,2013-07-12 20:10:00,
2013-07-12 16:20:00,80.4,28.5,29.15,ENE,67,2.0,6.0,15,0.00,CLR,,0.00,WeatherDisplay:10.37,2013-07-12 20:20:00,
2013-07-12 16:25:00,80.6,27.0,29.15,ENE,70,2.0,6.0,14,0.00,CLR,,0.00,WeatherDisplay:10.37,2013-07-12 20:25:00,
2013-07-12 16:35:00,79.9,28.1,29.15,ENE,61,5.0,8.0,15,0.00,CLR,,0.00,WeatherDisplay:10.37,2013-07-12 20:35:00,
2013-07-12 16:45:00,80.4,28.5,29.15,ENE,65,2.0,6.0,15,0.00,CLR,,0.00,WeatherDisplay:10.37,2013-07-12 20:45:00,
2013-07-12 16:50:00,80.4,28.5,29.15,ENE,66,6.0,6.0,15,0.00,CLR,,0.00,WeatherDisplay:10.37,2013-07-12 20:50:00,
2013-07-12 16:55:00,80.2,28.4,29.12,ENE,64,5.0,8.0,15,0.00,CLR,,0.00,WeatherDisplay:10.37,2013-07-12 20:55:00,
2013-07-12 17:05:00,80.2,28.3,29.12,ENE,66,5.0,8.0,15,0.00,CLR,,0.00,WeatherDisplay:10.37,2013-07-12 21:05:00,
2013-07-12 17:20:00,79.7,27.9,29.12,ENE,75,3.0,6.0,15,0.00,CLR,,0.00,WeatherDisplay:10.37,2013-07-12 21:20:00,
2013-07-12 17:25:00,78.4,26.9,29.12,ENE,73,2.0,6.0,15,0.00,CLR,,0.00,WeatherDisplay:10.37,2013-07-12 21:25:00,
2013-07-12 17:30:00,78.7,27.1,29.12,ENE,69,3.0,6.0,15,0.00,CLR,,0.00,WeatherDisplay:10.37,2013-07-12 21:30:00,
2013-07-12 17:35:00,79.4,27.7,29.12,ENE,64,2.0,8.0,15,0.00,CLR,,0.00,WeatherDisplay:10.37,2013-07-12 21:35:00,
2013-07-12 17:40:00,79.9,28.1,29.12,ENE,62,6.0,8.0,15,0.00,CLR,,0.00,WeatherDisplay:10.37,2013-07-12 21:40:00,
2013-07-12 17:50:00,80.0,28.2,29.12,ENE,70,0.0,6.0,15,0.00,CLR,,0.00,WeatherDisplay:10.37,2013-07-12 21:50:00,
2013-07-12 17:55:00,79.9,28.1,29.12,ENE,70,3.0,6.0,15,0.00,CLR,,0.00,WeatherDisplay:10.37,2013-07-12 21:55:00,
2013-07-12 23:15:00,66.6,20.3,29.15,ENE,67,0.0,5.0,17,0.00,CLR,,0.00,WeatherDisplay:10.37,2013-07-13 03:15:00,
2013-07-12 23:20:00,66.6,20.3,29.15,ENE,76,0.0,0.0,17,0.00,CLR,,0.00,WeatherDisplay:10.37,2013-07-13 03:20:00,
2013-07-12 23:30:00,66.6,20.3,29.15,East,81,0.0,0.0,17,0.00,CLR,,0.00,WeatherDisplay:10.37,2013-07-13 03:30:00,
2013-07-12 23:35:00,66.6,20.3,29.15,East,81,0.0,0.0,17,0.00,CLR,,0.00,WeatherDisplay:10.37,2013-07-13 03:35:00,
2013-07-12 23:40:00,66.6,20.3,29.15,East,81,0.0,0.0,17,0.00,CLR,,0.00,WeatherDisplay:10.37,2013-07-13 03:40:00,
2013-07-12 23:45:00,66.6,20.3,29.15,East,81,0.0,0.0,17,0.00,CLR,,0.00,WeatherDisplay:10.37,2013-07-13 03:45:00,
2013-07-12 23:50:00,66.6,20.3,29.15,East,81,0.0,0.0,17,0.00,CLR,,0.00,WeatherDisplay:10.37,2013-07-13 03:50:00,